Flag for Norway Weather past 2 weeks in Kragerø, Norway

Now
50 °F

Cool.


Feels Like: 50 °F
Forecast: 51 / 65 °F
Wind: 1 mph from West

Location: Jomfruland Fyr

Current Time: Sep 20, 2014 at 4:52:53 AM

Latest Report: Sep 20, 2014 at 4:00 AM


Visibility: N/A

Pressure: 30.01 "Hg

Humidity: 94%

Dew point: 48 °F

Location of KragerøLocation

Historic Weather in Kragerø — Graph

°F

Kragerø temperature yesterday

Maximum temperature yesterday: 63 °F (at 3:00 PM)
Minimum temperature yesterday: 53 °F (at 7:00 AM)
Average temperature yesterday: 57 °F

Past Weeks' High & Low Weather Summary

 TemperatureHumidityPressure
High67 °F (Sep 14, 4:00 PM)95% (Sep 5, 5:00 AM)30.46 "Hg (Sep 5, 5:00 AM)
Low52 °F (Sep 9, 6:00 AM)53% (Sep 13, 3:00 PM)29.78 "Hg (Sep 9, 6:00 AM)
Average59 °F80%30.16 "Hg
* Reported Sep 5 3:00 AM — Sep 20 3:00 AM, Kragerø, Weather by CustomWeather, © 2014

Note: Actual official high and low records may vary slightly from our data, if they occured in-between our weather recording intervals... More about our weather records

Advertising

Kragerø weather history for previous 24 hours

 ConditionsComfort  
Time TempWeatherWind HumidityBarometerVisibility
3:00 AM
Sep 20
53 °FCool.1 mph95%30.01 "HgN/A
2:00 AM52 °FCool.1 mph95%30.02 "HgN/A
1:00 AM53 °FCool.1 mph94%30.03 "HgN/A
12:00 AM53 °FCool.2 mph94%30.04 "HgN/A
11:00 PM
Sep 19
54 °FCool.1 mph93%30.04 "HgN/A
10:00 PM55 °FCool.1 mph92%30.05 "HgN/A
9:00 PM56 °FCool.1 mph91%30.05 "HgN/A
8:00 PM57 °FCool.1 mph88%30.05 "HgN/A
7:00 PM59 °FCool.2 mph84%30.05 "HgN/A
6:00 PM60 °FCool.2 mph80%30.05 "HgN/A
5:00 PM61 °FCool.2 mph75%30.06 "HgN/A
4:00 PM62 °FCool.2 mph77%30.06 "HgN/A
3:00 PM63 °FMild.2 mph73%30.07 "HgN/A
2:00 PM62 °FCool.2 mph70%30.09 "HgN/A
1:00 PM61 °FCool.3 mph71%30.09 "HgN/A
12:00 PM61 °FCool.3 mph68%30.10 "HgN/A
11:00 AM59 °FCool.3 mph70%30.11 "HgN/A
10:00 AM58 °FCool.3 mph74%30.11 "HgN/A
9:00 AM55 °FCool.3 mph77%30.11 "HgN/A
8:00 AM53 °FCool.2 mph83%30.10 "HgN/A
7:00 AM53 °FCool.2 mph85%30.10 "HgN/A
6:00 AM53 °FCool.2 mph86%30.10 "HgN/A
5:00 AM54 °FCool.2 mph86%30.10 "HgN/A
4:00 AM54 °FCool.2 mph86%30.11 "HgN/A
Weather by CustomWeather, © 2014

See weather overviewHow to use our weather pages